Select another period ( hide this area )

Units Period Custom range Directly to
Metric English Both
Daily Weekly Monthly Yearly
use both date-selectors for a custom range
previous Day
With this date

WeatherUnderground graphs for this period ( click here ) Loading the graph can take up to a minute!


Daily Summary for Wednesday Aug 12 2020
Time Temp. ( °C ) Dew pt. ( °C ) Wind ( km/h ) From Gust ( km/h ) Pressure ( hPa ) Humid.( % ) Rainrate ( cm )
High28,1 20,4 5,0 ENE ( 17/37 ) 6,0 1015,2 84 -
Average23,4 19,1 0,3 Kalm #125/140 1,1 1014,8 77 -
Low21,2 18,2 -   0,0 1014,2 58 -
Daily Tabular details for Wednesday Aug 12 2020
Time Temp. ( °C ) Dew pt. ( °C ) Wind ( km/h ) From Gust ( km/h ) Pressure ( hPa ) Humid.( % ) Rainrate ( cm )
00:02 24,2 20,3   Kalm   1015,2 79 -
00:07 24,1 20,2   Kalm 2,0 1015,2 79 -
00:12 24,1 20,2   Kalm   1015,2 79 -
00:17 24,1 20,4   Kalm 2,0 1014,9 80 -
00:22 24,2 20,3   Kalm 2,0 1015,2 79 -
00:27 24,2 20,1   Kalm 2,0 1014,9 78 -
00:32 24,2 20,1   Kalm   1014,9 78 -
00:37 24,2 20,1   Kalm 2,0 1014,9 78 -
00:42 24,2 20,1   Kalm   1014,9 78 -
00:47 24,1 20,0   Kalm   1014,9 78 -
00:52 24,1 20,0   Kalm   1014,6 78 -
00:57 23,9 19,8   Kalm   1014,9 78 -
01:02 23,9 19,8   Kalm   1014,9 78 -
01:07 23,9 19,8   Kalm   1014,9 78 -
01:12 23,9 19,8   Kalm   1014,6 78 -
01:17 23,8 19,7   Kalm   1014,6 78 -
01:22 23,8 19,7   Kalm   1014,9 78 -
01:27 23,8 19,7   Kalm 2,0 1014,9 78 -
01:32 23,7 19,6   Kalm   1014,9 78 -
01:37 23,7 19,8   Kalm 2,0 1015,2 79 -
01:42 23,7 19,8   Kalm 2,0 1014,9 79 -
01:47 23,7 19,8   Kalm 3,0 1015,2 79 -
01:52 23,7 19,6   Kalm   1014,9 78 -
01:57 23,6 19,7 3,0 East 3,0 1014,9 79 -
02:02 23,6 19,7   Kalm 3,0 1014,9 79 -
02:07 23,6 19,7   Kalm 3,0 1014,9 79 -
02:12 23,6 19,7   Kalm 3,0 1014,6 79 -
02:17 23,5 19,8   Kalm 2,0 1014,9 80 -
02:22 23,4 19,8   Kalm   1014,9 80 -
02:27 23,3 19,7   Kalm 2,0 1014,9 80 -
02:32 23,2 19,8   Kalm 2,0 1015,2 81 -
02:37 23,2 19,8   Kalm 2,0 1014,9 81 -
02:42 23,1 19,7   Kalm   1014,9 81 -
02:47 23,0 19,6   Kalm 2,0 1014,9 81 -
02:52 22,9 19,5   Kalm   1014,9 81 -
02:57 22,8 19,4   Kalm   1014,6 81 -
03:02 22,8 19,4   Kalm   1014,6 81 -
03:07 22,9 19,5   Kalm   1014,6 81 -
03:12 22,8 19,4   Kalm   1014,6 81 -
03:17 22,8 19,4   Kalm   1014,6 81 -
03:22 22,8 19,6   Kalm   1014,9 82 -
03:27 22,9 19,5   Kalm 2,0 1014,9 81 -
03:32 22,9 19,5   Kalm   1014,9 81 -
03:37 22,8 19,4   Kalm   1014,9 81 -
03:42 22,7 19,5   Kalm   1014,9 82 -
03:47 22,7 19,5   Kalm   1014,9 82 -
03:52 22,7 19,5   Kalm   1014,9 82 -
03:57 22,6 19,4   Kalm   1014,9 82 -
04:02 22,6 19,4   Kalm   1014,9 82 -
04:08 22,6 19,2   Kalm   1014,9 81 -
04:13 22,6 19,0   Kalm   1014,9 80 -
04:18 22,5 18,9   Kalm 2,0 1014,9 80 -
04:23 22,5 18,9   Kalm   1014,9 80 -
04:28 22,5 18,9   Kalm 2,0 1014,9 80 -
04:33 22,5 18,7   Kalm 5,0 1014,9 79 -
04:38 22,5 18,7   Kalm   1014,6 79 -
04:43 22,5 18,7 3,0 NE 3,0 1014,6 79 -
04:48 22,4 18,4   Kalm 2,0 1014,6 78 -
04:53 22,4 18,4   Kalm 2,0 1014,6 78 -
04:58 22,3 18,3   Kalm   1014,6 78 -
05:03 22,2 18,4   Kalm 2,0 1014,6 79 -
05:08 22,2 18,4   Kalm   1014,6 79 -
05:13 22,1 18,5   Kalm   1014,2 80 -
05:18 22,1 18,5 1,0 East 2,0 1014,2 80 -
05:23 22,1 18,5   Kalm 2,0 1014,2 80 -
05:28 22,1 18,5   Kalm   1014,2 80 -
05:33 21,9 18,3   Kalm 2,0 1014,2 80 -
05:38 21,9 18,3   Kalm 3,0 1014,2 80 -
05:43 21,9 18,5   Kalm   1014,2 81 -
05:48 21,9 18,5   Kalm 3,0 1014,2 81 -
05:53 21,8 18,4   Kalm   1014,6 81 -
05:58 21,7 18,5   Kalm   1014,6 82 -
06:03 21,7 18,7   Kalm   1014,6 83 -
06:08 21,6 18,6   Kalm   1014,9 83 -
06:13 21,5 18,5   Kalm   1015,2 83 -
06:18 21,4 18,6   Kalm   1015,2 84 -
06:23 21,3 18,5   Kalm   1015,2 84 -
06:28 21,2 18,4   Kalm   1015,2 84 -
06:33 21,2 18,4   Kalm   1014,9 84 -
06:38 21,2 18,4   Kalm   1014,9 84 -
06:43 21,2 18,4   Kalm   1015,2 84 -
06:48 21,3 18,5   Kalm   1014,9 84 -
06:53 21,3 18,5   Kalm 2,0 1014,9 84 -
06:58 21,4 18,4 1,0 East 2,0 1014,9 83 -
07:03 21,4 18,2   Kalm   1014,9 82 -
07:08 21,4 18,2   Kalm   1014,9 82 -
07:13 21,6 18,6   Kalm   1014,9 83 -
07:18 21,6 18,4   Kalm   1014,9 82 -
07:23 21,6 18,4   Kalm 2,0 1014,9 82 -
07:28 21,6 18,2 1,0 ENE 2,0 1014,9 81 -
07:33 21,7 18,5   Kalm   1014,9 82 -
07:38 21,7 18,3   Kalm   1014,9 81 -
07:43 21,9 18,3   Kalm   1014,9 80 -
07:48 22,0 18,4   Kalm   1014,9 80 -
07:53 22,1 18,3   Kalm   1014,9 79 -
07:58 22,2 18,6   Kalm   1014,9 80 -
08:03 22,3 18,5   Kalm   1014,9 79 -
08:08 22,4 18,6   Kalm   1014,9 79 -
08:13 22,4 18,4   Kalm   1014,9 78 -
08:18 22,6 18,6   Kalm   1014,9 78 -
08:23 22,7 18,7   Kalm   1014,9 78 -
08:28 22,8 18,8   Kalm   1015,2 78 -
08:33 23,0 18,7   Kalm   1014,9 77 -
08:38 23,1 18,6   Kalm   1014,9 76 -
08:43 23,3 18,8   Kalm   1014,9 76 -
08:48 23,4 18,5   Kalm   1014,9 74 -
08:53 23,6 18,5   Kalm   1014,6 73 -
08:58 23,7 18,6   Kalm   1014,6 73 -
09:03 23,9 18,5   Kalm   1014,6 72 -
09:08 24,1 18,5   Kalm   1014,6 71 -
09:13 24,2 18,6   Kalm   1014,9 71 -
09:18 24,3 18,5   Kalm   1014,6 70 -
09:23 24,4 18,8 3,0 ENE 6,0 1014,6 71 -
09:28 24,4 19,0 5,0 NE 6,0 1014,6 72 -
09:33 24,3 19,1   Kalm 3,0 1014,6 73 -
09:38 24,2 19,1 5,0 ENE 5,0 1014,6 73 -
09:43 24,2 18,8 3,0 ENE 5,0 1014,6 72 -
09:48 24,3 18,9   Kalm 2,0 1014,6 72 -
09:53 24,4 19,0 5,0 ENE 6,0 1014,6 72 -
09:58 24,4 19,2   Kalm 2,0 1014,9 73 -
10:03 24,7 19,5   Kalm   1014,9 73 -
10:08 25,0 19,6   Kalm 2,0 1014,9 72 -
10:13 25,3 19,7   Kalm 2,0 1014,9 71 -
10:18 25,3 19,0   Kalm 2,0 1014,9 68 -
10:23 25,6 19,3   Kalm   1014,9 68 -
10:28 25,9 19,3   Kalm 2,0 1015,2 67 -
10:33 26,1 19,5   Kalm   1014,9 67 -
10:38 26,5 19,9   Kalm   1014,9 67 -
10:43 26,7 19,6 1,0 ESE 3,0 1014,9 65 -
10:48 26,7 19,6 1,0 East 3,0 1015,2 65 -
10:53 26,7 19,3 3,0 East 3,0 1014,9 64 -
10:58 26,8 19,2 1,0 East 3,0 1014,9 63 -
11:03 26,8 19,2 1,0 East 5,0 1014,9 63 -
11:08 26,9 19,3   Kalm 2,0 1014,9 63 -
11:13 27,1 19,2   Kalm 2,0 1014,9 62 -
11:18 27,3 19,4   Kalm 3,0 1014,9 62 -
11:23 27,6 19,4   Kalm 2,0 1014,9 61 -
11:28 27,8 19,6   Kalm 2,0 1014,9 61 -
11:33 28,0 19,5   Kalm   1014,9 60 -
11:38 28,1 19,1   Kalm 5,0 1014,9 58 -
Daily Summary for Wednesday Aug 12 2020
Time Temp. ( °C ) Dew pt. ( °C ) Wind ( km/h ) From Gust ( km/h ) Pressure ( hPa ) Humid.( % ) Rainrate ( cm )
High28,1 20,4 5,0 ENE ( 17/37 ) 6,0 1015,2 84 -
Average23,4 19,1 0,3 Kalm #125/140 1,1 1014,8 77 -
Low21,2 18,2 -   0,0 1014,2 58 -
Daily Tabular details for Wednesday Aug 12 2020
Time Temp. ( °C ) Dew pt. ( °C ) Wind ( km/h ) From Gust ( km/h ) Pressure ( hPa ) Humid.( % ) Rainrate ( cm )
00:02 24,2 20,3   Kalm   1015,2 79 -
00:07 24,1 20,2   Kalm 2,0 1015,2 79 -
00:12 24,1 20,2   Kalm   1015,2 79 -
00:17 24,1 20,4   Kalm 2,0 1014,9 80 -
00:22 24,2 20,3   Kalm 2,0 1015,2 79 -
00:27 24,2 20,1   Kalm 2,0 1014,9 78 -
00:32 24,2 20,1   Kalm   1014,9 78 -
00:37 24,2 20,1   Kalm 2,0 1014,9 78 -
00:42 24,2 20,1   Kalm   1014,9 78 -
00:47 24,1 20,0   Kalm   1014,9 78 -
00:52 24,1 20,0   Kalm   1014,6 78 -
00:57 23,9 19,8   Kalm   1014,9 78 -
01:02 23,9 19,8   Kalm   1014,9 78 -
01:07 23,9 19,8   Kalm   1014,9 78 -
01:12 23,9 19,8   Kalm   1014,6 78 -
01:17 23,8 19,7   Kalm   1014,6 78 -
01:22 23,8 19,7   Kalm   1014,9 78 -
01:27 23,8 19,7   Kalm 2,0 1014,9 78 -
01:32 23,7 19,6   Kalm   1014,9 78 -
01:37 23,7 19,8   Kalm 2,0 1015,2 79 -
01:42 23,7 19,8   Kalm 2,0 1014,9 79 -
01:47 23,7 19,8   Kalm 3,0 1015,2 79 -
01:52 23,7 19,6   Kalm   1014,9 78 -
01:57 23,6 19,7 3,0 East 3,0 1014,9 79 -
02:02 23,6 19,7   Kalm 3,0 1014,9 79 -
02:07 23,6 19,7   Kalm 3,0 1014,9 79 -
02:12 23,6 19,7   Kalm 3,0 1014,6 79 -
02:17 23,5 19,8   Kalm 2,0 1014,9 80 -
02:22 23,4 19,8   Kalm   1014,9 80 -
02:27 23,3 19,7   Kalm 2,0 1014,9 80 -
02:32 23,2 19,8   Kalm 2,0 1015,2 81 -
02:37 23,2 19,8   Kalm 2,0 1014,9 81 -
02:42 23,1 19,7   Kalm   1014,9 81 -
02:47 23,0 19,6   Kalm 2,0 1014,9 81 -
02:52 22,9 19,5   Kalm   1014,9 81 -
02:57 22,8 19,4   Kalm   1014,6 81 -
03:02 22,8 19,4   Kalm   1014,6 81 -
03:07 22,9 19,5   Kalm   1014,6 81 -
03:12 22,8 19,4   Kalm   1014,6 81 -
03:17 22,8 19,4   Kalm   1014,6 81 -
03:22 22,8 19,6   Kalm   1014,9 82 -
03:27 22,9 19,5   Kalm 2,0 1014,9 81 -
03:32 22,9 19,5   Kalm   1014,9 81 -
03:37 22,8 19,4   Kalm   1014,9 81 -
03:42 22,7 19,5   Kalm   1014,9 82 -
03:47 22,7 19,5   Kalm   1014,9 82 -
03:52 22,7 19,5   Kalm   1014,9 82 -
03:57 22,6 19,4   Kalm   1014,9 82 -
04:02 22,6 19,4   Kalm   1014,9 82 -
04:08 22,6 19,2   Kalm   1014,9 81 -
04:13 22,6 19,0   Kalm   1014,9 80 -
04:18 22,5 18,9   Kalm 2,0 1014,9 80 -
04:23 22,5 18,9   Kalm   1014,9 80 -
04:28 22,5 18,9   Kalm 2,0 1014,9 80 -
04:33 22,5 18,7   Kalm 5,0 1014,9 79 -
04:38 22,5 18,7   Kalm   1014,6 79 -
04:43 22,5 18,7 3,0 NE 3,0 1014,6 79 -
04:48 22,4 18,4   Kalm 2,0 1014,6 78 -
04:53 22,4 18,4   Kalm 2,0 1014,6 78 -
04:58 22,3 18,3   Kalm   1014,6 78 -
05:03 22,2 18,4   Kalm 2,0 1014,6 79 -
05:08 22,2 18,4   Kalm   1014,6 79 -
05:13 22,1 18,5   Kalm   1014,2 80 -
05:18 22,1 18,5 1,0 East 2,0 1014,2 80 -
05:23 22,1 18,5   Kalm 2,0 1014,2 80 -
05:28 22,1 18,5   Kalm   1014,2 80 -
05:33 21,9 18,3   Kalm 2,0 1014,2 80 -
05:38 21,9 18,3   Kalm 3,0 1014,2 80 -
05:43 21,9 18,5   Kalm   1014,2 81 -
05:48 21,9 18,5   Kalm 3,0 1014,2 81 -
05:53 21,8 18,4   Kalm   1014,6 81 -
05:58 21,7 18,5   Kalm   1014,6 82 -
06:03 21,7 18,7   Kalm   1014,6 83 -
06:08 21,6 18,6   Kalm   1014,9 83 -
06:13 21,5 18,5   Kalm   1015,2 83 -
06:18 21,4 18,6   Kalm   1015,2 84 -
06:23 21,3 18,5   Kalm   1015,2 84 -
06:28 21,2 18,4   Kalm   1015,2 84 -
06:33 21,2 18,4   Kalm   1014,9 84 -
06:38 21,2 18,4   Kalm   1014,9 84 -
06:43 21,2 18,4   Kalm   1015,2 84 -
06:48 21,3 18,5   Kalm   1014,9 84 -
06:53 21,3 18,5   Kalm 2,0 1014,9 84 -
06:58 21,4 18,4 1,0 East 2,0 1014,9 83 -
07:03 21,4 18,2   Kalm   1014,9 82 -
07:08 21,4 18,2   Kalm   1014,9 82 -
07:13 21,6 18,6   Kalm   1014,9 83 -
07:18 21,6 18,4   Kalm   1014,9 82 -
07:23 21,6 18,4   Kalm 2,0 1014,9 82 -
07:28 21,6 18,2 1,0 ENE 2,0 1014,9 81 -
07:33 21,7 18,5   Kalm   1014,9 82 -
07:38 21,7 18,3   Kalm   1014,9 81 -
07:43 21,9 18,3   Kalm   1014,9 80 -
07:48 22,0 18,4   Kalm   1014,9 80 -
07:53 22,1 18,3   Kalm   1014,9 79 -
07:58 22,2 18,6   Kalm   1014,9 80 -
08:03 22,3 18,5   Kalm   1014,9 79 -
08:08 22,4 18,6   Kalm   1014,9 79 -
08:13 22,4 18,4   Kalm   1014,9 78 -
08:18 22,6 18,6   Kalm   1014,9 78 -
08:23 22,7 18,7   Kalm   1014,9 78 -
08:28 22,8 18,8   Kalm   1015,2 78 -
08:33 23,0 18,7   Kalm   1014,9 77 -
08:38 23,1 18,6   Kalm   1014,9 76 -
08:43 23,3 18,8   Kalm   1014,9 76 -
08:48 23,4 18,5   Kalm   1014,9 74 -
08:53 23,6 18,5   Kalm   1014,6 73 -
08:58 23,7 18,6   Kalm   1014,6 73 -
09:03 23,9 18,5   Kalm   1014,6 72 -
09:08 24,1 18,5   Kalm   1014,6 71 -
09:13 24,2 18,6   Kalm   1014,9 71 -
09:18 24,3 18,5   Kalm   1014,6 70 -
09:23 24,4 18,8 3,0 ENE 6,0 1014,6 71 -
09:28 24,4 19,0 5,0 NE 6,0 1014,6 72 -
09:33 24,3 19,1   Kalm 3,0 1014,6 73 -
09:38 24,2 19,1 5,0 ENE 5,0 1014,6 73 -
09:43 24,2 18,8 3,0 ENE 5,0 1014,6 72 -
09:48 24,3 18,9   Kalm 2,0 1014,6 72 -
09:53 24,4 19,0 5,0 ENE 6,0 1014,6 72 -
09:58 24,4 19,2   Kalm 2,0 1014,9 73 -
10:03 24,7 19,5   Kalm   1014,9 73 -
10:08 25,0 19,6   Kalm 2,0 1014,9 72 -
10:13 25,3 19,7   Kalm 2,0 1014,9 71 -
10:18 25,3 19,0   Kalm 2,0 1014,9 68 -
10:23 25,6 19,3   Kalm   1014,9 68 -
10:28 25,9 19,3   Kalm 2,0 1015,2 67 -
10:33 26,1 19,5   Kalm   1014,9 67 -
10:38 26,5 19,9   Kalm   1014,9 67 -
10:43 26,7 19,6 1,0 ESE 3,0 1014,9 65 -
10:48 26,7 19,6 1,0 East 3,0 1015,2 65 -
10:53 26,7 19,3 3,0 East 3,0 1014,9 64 -
10:58 26,8 19,2 1,0 East 3,0 1014,9 63 -
11:03 26,8 19,2 1,0 East 5,0 1014,9 63 -
11:08 26,9 19,3   Kalm 2,0 1014,9 63 -
11:13 27,1 19,2   Kalm 2,0 1014,9 62 -
11:18 27,3 19,4   Kalm 3,0 1014,9 62 -
11:23 27,6 19,4   Kalm 2,0 1014,9 61 -
11:28 27,8 19,6   Kalm 2,0 1014,9 61 -
11:33 28,0 19,5   Kalm   1014,9 60 -
11:38 28,1 19,1   Kalm 5,0 1014,9 58 -

Download your copy of this data-set  from WeatherUnderground

Our weather-data as stored at Weather Underground. Original script b Jim McMurry. Rewritten for template use Leuven-Template